Tracking 28799 objects as of 18-Apr-2024
HD Live streaming from Space Station
objects crossing your sky now

STARLINK-1222

Track STARLINK-1222 now!
10-day predictions
STARLINK-1222 is classified as:


NORAD ID: 45228
Int'l Code: 2020-012BC
Perigee: 553.5 km
Apogee: 555.3 km
Inclination: 53.1 °
Period: 95.6 minutes
Semi major axis: 6925 km
RCS: Unknown
Launch date: February 17, 2020
Source: United States (US)
Launch site: AIR FORCE EASTERN TEST RANGE (AFETR)
Your satellite tracking list
Your tracking list is empty




NASA's NSSDC Master Catalog

Two Line Element Set (TLE):
1 45228U 20012BC  24108.60054647 -.00002465  00000-0 -14669-3 0  9991
2 45228  53.0538 229.0334 0001361  87.1089 273.0056 15.06381568231129
Source of the keplerian elements: AFSPC